AAL1601 KMCO-KCLT

Flight info

Callsign AAL1601
Flight time N/A
Altitude 39000
Route FATHE4 VIYAP CHECR STOCR4
Aircraft A319/M-SDE3FGHIRWY/LB1

Departure

Time 2026-05-08 07:19
Airport Orlando International Airport (KMCO)

Arrival

Time N/A
Airport Charlotte Douglas International Airport (KCLT)
Time Latitude Longitude Altitude Speed Heading
2026-05-08 07:19 28.58543 -81.32008 6348 ft 271 kts
2026-05-08 07:19 28.60429 -81.31834 7097 ft 278 kts
2026-05-08 07:20 28.62396 -81.31652 7659 ft 282 kts
2026-05-08 07:20 28.64360 -81.31423 8423 ft 290 kts
2026-05-08 07:20 28.66366 -81.31156 9356 ft 292 kts
2026-05-08 07:20 28.68383 -81.30885 10179 ft 297 kts
2026-05-08 07:21 28.70461 -81.30611 10793 ft 309 kts
2026-05-08 07:21 28.72661 -81.30325 11436 ft 320 kts
2026-05-08 07:21 28.74866 -81.30038 12209 ft 324 kts
2026-05-08 07:21 28.77118 -81.29744 12994 ft 327 kts
2026-05-08 07:22 28.79362 -81.29452 13753 ft 330 kts
2026-05-08 07:22 28.81670 -81.29156 14528 ft 333 kts 360°
2026-05-08 07:22 28.83977 -81.28989 15287 ft 333 kts 355°
2026-05-08 07:22 28.86295 -81.29031 16029 ft 333 kts 350°
2026-05-08 07:23 28.88581 -81.29211 16735 ft 336 kts 349°
2026-05-08 07:23 28.90931 -81.29417 17476 ft 338 kts 348°
2026-05-08 07:23 28.93266 -81.29623 18156 ft 341 kts 348°
2026-05-08 07:23 28.95659 -81.29833 18820 ft 345 kts 348°
2026-05-08 07:24 28.98044 -81.30041 19441 ft 349 kts 348°
2026-05-08 07:24 29.00499 -81.30270 20062 ft 352 kts 347°
2026-05-08 07:24 29.02946 -81.30542 20685 ft 355 kts 346°
2026-05-08 07:24 29.05416 -81.30825 21293 ft 359 kts 346°
2026-05-08 07:25 29.07895 -81.31108 21876 ft 362 kts 346°
2026-05-08 07:25 29.10425 -81.31385 22464 ft 367 kts 347°
2026-05-08 07:25 29.15568 -81.31722 23631 ft 374 kts 348°
2026-05-08 07:26 29.18182 -81.31875 24194 ft 378 kts 348°
2026-05-08 07:26 29.20802 -81.32030 24777 ft 380 kts 348°
2026-05-08 07:26 29.23469 -81.32188 25342 ft 384 kts 348°
2026-05-08 07:26 29.26123 -81.32347 25898 ft 387 kts 348°
2026-05-08 07:27 29.28829 -81.32509 26444 ft 390 kts 348°
2026-05-08 07:27 29.31561 -81.32672 26984 ft 394 kts 348°
2026-05-08 07:27 29.34313 -81.32839 27506 ft 397 kts 348°
2026-05-08 07:27 29.37056 -81.33006 28017 ft 401 kts 347°
2026-05-08 07:28 29.39842 -81.33172 28544 ft 403 kts 347°
2026-05-08 07:28 29.42670 -81.33343 29073 ft 406 kts 347°
2026-05-08 07:28 29.45500 -81.33514 29596 ft 409 kts 347°
2026-05-08 07:28 29.48324 -81.33684 30066 ft 412 kts 348°
2026-05-08 07:29 29.51218 -81.33859 30576 ft 415 kts 347°
2026-05-08 07:29 29.54118 -81.34034 31051 ft 418 kts 347°
2026-05-08 07:29 29.57007 -81.34208 31483 ft 422 kts 347°
2026-05-08 07:29 29.59962 -81.34386 31957 ft 425 kts 347°
2026-05-08 07:30 29.62906 -81.34563 32396 ft 428 kts 347°
2026-05-08 07:30 29.65910 -81.34744 32822 ft 431 kts 347°
2026-05-08 07:30 29.68882 -81.34915 33388 ft 431 kts 347°
2026-05-08 07:30 29.71886 -81.35085 34119 ft 428 kts 347°
2026-05-08 07:31 29.74857 -81.35250 34865 ft 424 kts 347°
2026-05-08 07:31 29.77761 -81.35415 35564 ft 421 kts 347°
2026-05-08 07:31 29.80683 -81.35580 36238 ft 417 kts 347°
2026-05-08 07:31 29.83549 -81.35745 36847 ft 414 kts 347°
2026-05-08 07:32 29.86437 -81.35911 37397 ft 412 kts 347°
2026-05-08 07:32 29.89277 -81.36076 37840 ft 412 kts 347°
2026-05-08 07:32 29.92157 -81.36243 38175 ft 413 kts 347°
2026-05-08 07:32 29.95021 -81.36411 38506 ft 414 kts 347°
2026-05-08 07:33 29.97926 -81.36580 38845 ft 415 kts 347°
2026-05-08 07:33 30.00808 -81.36749 38981 ft 417 kts 347°
2026-05-08 07:33 30.03728 -81.36917 38992 ft 418 kts 347°
2026-05-08 07:34 30.09518 -81.37251 38992 ft 417 kts 347°
2026-05-08 07:34 30.15344 -81.37582 38991 ft 418 kts 346°
2026-05-08 07:35 30.21151 -81.37914 38993 ft 417 kts 346°
2026-05-08 07:35 30.26948 -81.38247 38990 ft 417 kts 346°
2026-05-08 07:36 30.32726 -81.38583 38989 ft 417 kts 346°
2026-05-08 07:36 30.38527 -81.38920 38985 ft 417 kts 346°
2026-05-08 07:37 30.44310 -81.39256 38991 ft 416 kts 346°
2026-05-08 07:37 30.50115 -81.39578 38990 ft 416 kts 346°
2026-05-08 07:38 30.55903 -81.39882 38995 ft 416 kts 346°
2026-05-08 07:38 30.61700 -81.40188 38993 ft 416 kts 346°
2026-05-08 07:39 30.67487 -81.40496 38994 ft 416 kts 346°
2026-05-08 07:39 30.73271 -81.40802 38991 ft 416 kts 346°
2026-05-08 07:40 30.79059 -81.41110 38990 ft 416 kts 346°
2026-05-08 07:40 30.84830 -81.41415 38986 ft 416 kts 346°
2026-05-08 07:41 30.90583 -81.41724 38981 ft 415 kts 345°
2026-05-08 07:41 30.96375 -81.42033 38975 ft 416 kts 345°
2026-05-08 07:42 31.02129 -81.42340 38975 ft 416 kts 346°
2026-05-08 07:42 31.07925 -81.42648 38983 ft 414 kts 346°
2026-05-08 07:43 31.13701 -81.42954 38987 ft 415 kts 345°
2026-05-08 07:43 31.19499 -81.43082 38993 ft 421 kts 349°
2026-05-08 07:44 31.25431 -81.42459 38995 ft 430 kts 356°
2026-05-08 07:44 31.31342 -81.40990 38994 ft 440 kts
2026-05-08 07:45 31.37177 -81.38769 38994 ft 444 kts
2026-05-08 07:45 31.43038 -81.36366 38992 ft 444 kts
2026-05-08 07:46 31.48857 -81.33983 38991 ft 444 kts
2026-05-08 07:46 31.54682 -81.31602 38986 ft 445 kts
2026-05-08 07:47 31.60568 -81.29198 38986 ft 445 kts
2026-05-08 07:47 31.66392 -81.26811 38988 ft 445 kts